Weather WX

World > North America > United States > Mississippi

Liberty, Mississippi Regional Weather

Lat: 31.16N, Lon: 90.8W
Wx Zone: MSZ069
Warning FLW WEATHER ALERT - (More Info. Click Here) Warning
Feedback

Liberty, MS Regional Weather

Expires:201906182300;;700606
ASUS44 KJAN 182210
RWRMS 

MISSISSIPPI HOURLY WEATHER ROUNDUP
NATIONAL WEATHER SERVICE JACKSON MS
500 PM CDT TUE JUN 18 2019

NOTE: "FAIR: INDICATES FEW OR NO CLOUDS BELOW 12,000 FEET WITH NO
SIGNIFICANT WEATHER AND/OR OBSTRUCTIONS TO VISIBILITY.


MSZ059>079-182300-
SOUTH MISSISSIPPI
  
CITY           SKY/WX    TMP DP  RH WIND       PRES   REMARKS
BROOKHAVEN     FAIR      88  72  58 SE5       29.89F HX  94           
HATTIESBURG    PTSUNNY   86  71  60 SW3       29.88F HX  91           
LAUREL         CLEAR     87  74  64 S6        29.87F HX  95           
MCCOMB         FAIR      90  70  51 W8        29.87F HX  95           
NATCHEZ        FAIR      89  71  55 VRB7      29.87S HX  95           
PINE BELT      PTSUNNY   86  75  69 VRB3      29.89S HX  95           
$$


SKY/WX - Weather  TMP - Temperature  DP - Dew Point  RH - Relative Humidity
WIND - Wind Direction/Speed PRES - Barometric Pressure VSB - Visibility
WCI - Wind Chill Index E13G22 Wind - East Wind 13 mph/Gusts of 22 mph